| time (UTC) | temp C | wind direction | speed KPH | gust KPH | rain 1hr cm | rain 24hr cm | rain mn cm | humidity % | barometer mb |
| 20260505140623 | 18 | 273 | 3.2 | 12.9 | 0.00 | 0.08 | 0.03 | 61 | 1008.1 |
| 20260505140124 | 18 | 36 | 0.0 | 16.1 | 0.00 | 0.08 | 0.03 | 61 | 1008.1 |
| 20260505130114 | 18 | 329 | 1.6 | 9.7 | 0.03 | 0.08 | 0.03 | 55 | 1008.0 |
| 20260505124644 | 17 | 157 | 1.6 | 14.5 | 0.00 | 0.05 | 0.00 | 56 | 1008.1 |
| 20260505124524 | 17 | 209 | 0.0 | 14.5 | 0.00 | 0.05 | 0.00 | 55 | 1007.6 |
| 20260505124139 | 17 | 28 | 1.6 | 14.5 | 0.00 | 0.05 | 0.00 | 57 | 1007.9 |
| 20260505123624 | 17 | 189 | 1.6 | 12.9 | 0.00 | 0.05 | 0.00 | 57 | 1007.9 |
| 20260505123134 | 17 | 283 | 0.0 | 12.9 | 0.00 | 0.05 | 0.00 | 57 | 1008.0 |
| 20260505123106 | 16 | 88 | 0.0 | 12.9 | 0.00 | 0.05 | 0.00 | 59 | 1007.6 |
| 20260505122634 | 16 | 266 | 0.0 | 6.4 | 0.00 | 0.05 | 0.00 | 57 | 1008.2 |
| 20260505122153 | 16 | 263 | 1.6 | 9.7 | 0.00 | 0.05 | 0.00 | 57 | 1008.3 |
| 20260505121612 | 16 | 25 | 1.6 | 8.0 | 0.00 | 0.05 | 0.00 | 57 | 1008.2 |
| 20260505121509 | 16 | 34 | 1.6 | 8.0 | 0.00 | 0.05 | 0.00 | 57 | 1007.8 |
| 20260505121151 | 16 | 95 | 1.6 | 14.5 | 0.00 | 0.05 | 0.00 | 58 | 1008.2 |
| 20260505120618 | 16 | 202 | 1.6 | 17.7 | 0.00 | 0.05 | 0.00 | 58 | 1008.2 |
| 20260505120123 | 16 | 259 | 3.2 | 17.7 | 0.00 | 0.05 | 0.00 | 57 | 1008.2 |
| 20260505120043 | 16 | 259 | 3.2 | 17.7 | 0.00 | 0.05 | 0.00 | 57 | 1007.8 |
| 20260505115624 | 16 | 98 | 3.2 | 17.7 | 0.00 | 0.05 | 0.00 | 58 | 1008.1 |
| 20260505115112 | 16 | 322 | 1.6 | 12.9 | 0.00 | 0.05 | 0.00 | 58 | 1007.9 |
| 20260505114643 | 16 | 268 | 0.0 | 4.8 | 0.00 | 0.05 | 0.00 | 58 | 1007.7 |
| 20260505114502 | 16 | 285 | 0.0 | 4.8 | 0.00 | 0.05 | 0.00 | 58 | 1007.2 |
| 20260505114123 | 16 | 139 | 0.0 | 9.7 | 0.00 | 0.05 | 0.00 | 58 | 1007.7 |
| 20260505113623 | 16 | 32 | 0.0 | 12.9 | 0.00 | 0.05 | 0.00 | 57 | 1007.8 |
| 20260505113126 | 16 | 193 | 1.6 | 11.3 | 0.00 | 0.05 | 0.00 | 56 | 1007.9 |
| 20260505113041 | 16 | 247 | 1.6 | 11.3 | 0.00 | 0.05 | 0.00 | 57 | 1007.5 |
| 20260505112611 | 16 | 301 | 0.0 | 9.7 | 0.00 | 0.05 | 0.00 | 57 | 1008.1 |
| 20260505112120 | 16 | 230 | 0.0 | 8.0 | 0.00 | 0.05 | 0.00 | 57 | 1008.0 |
| 20260505111629 | 16 | 313 | 0.0 | 8.0 | 0.00 | 0.05 | 0.00 | 58 | 1008.0 |
| 20260505111549 | 16 | 294 | 0.0 | 6.4 | 0.00 | 0.05 | 0.00 | 58 | 1007.6 |
| 20260505111138 | 16 | 273 | 0.0 | 17.7 | 0.00 | 0.05 | 0.00 | 58 | 1008.0 |
| 20260505110636 | 16 | 247 | 1.6 | 17.7 | 0.00 | 0.05 | 0.00 | 58 | 1008.0 |
| 20260505110123 | 16 | 266 | 1.6 | 14.5 | 0.00 | 0.05 | 0.00 | 57 | 1007.9 |
| 20260505102129 | 15 | 252 | 0.0 | 11.3 | 0.00 | 0.05 | 0.00 | 58 | 1007.6 |
| 20260505101652 | 15 | 275 | 1.6 | 12.9 | 0.00 | 0.05 | 0.00 | 57 | 1007.6 |
| 20260505101553 | 15 | 247 | 0.0 | 12.9 | 0.00 | 0.05 | 0.00 | 57 | 1007.2 |
| 20260505101134 | 16 | 175 | 1.6 | 12.9 | 0.00 | 0.05 | 0.00 | 56 | 1007.8 |
| 20260505100632 | 16 | 179 | 0.0 | 9.7 | 0.00 | 0.05 | 0.00 | 56 | 1007.8 |
| 20260505100149 | 16 | 214 | 1.6 | 9.7 | 0.00 | 0.05 | 0.00 | 55 | 1007.8 |
| 20260505100034 | 15 | 225 | 1.6 | 9.7 | 0.00 | 0.05 | 0.00 | 56 | 1007.5 |
| 20260505095610 | 16 | 269 | 1.6 | 14.5 | 0.00 | 0.13 | 0.00 | 55 | 1007.9 |
| 20260505095121 | 16 | 259 | 1.6 | 14.5 | 0.00 | 0.13 | 0.00 | 55 | 1007.7 |
| 20260505094622 | 16 | 248 | 1.6 | 17.7 | 0.00 | 0.13 | 0.00 | 56 | 1007.9 |
| 20260505094529 | 15 | 212 | 0.0 | 17.7 | 0.00 | 0.13 | 0.00 | 55 | 1007.5 |
| 20260505094121 | 16 | 325 | 3.2 | 17.7 | 0.00 | 0.13 | 0.00 | 55 | 1007.8 |
| 20260505093625 | 16 | 360 | 0.0 | 11.3 | 0.00 | 0.13 | 0.00 | 56 | 1007.9 |
| 20260505093143 | 16 | 311 | 1.6 | 17.7 | 0.00 | 0.13 | 0.00 | 55 | 1007.9 |
| 20260505093009 | 15 | 285 | 0.0 | 17.7 | 0.00 | 0.13 | 0.00 | 55 | 1007.6 |
| 20260505092630 | 16 | 294 | 3.2 | 17.7 | 0.00 | 0.13 | 0.00 | 56 | 1007.7 |
| 20260505092133 | 16 | 268 | 1.6 | 19.3 | 0.00 | 0.13 | 0.00 | 55 | 1007.9 |
| 20260505091624 | 16 | 345 | 1.6 | 19.3 | 0.00 | 0.13 | 0.00 | 56 | 1007.9 |
| 20260505091551 | 15 | 244 | 0.0 | 19.3 | 0.00 | 0.13 | 0.00 | 56 | 1007.6 |
| 20260505091127 | 15 | 30 | 1.6 | 17.7 | 0.00 | 0.13 | 0.00 | 56 | 1007.7 |
| 20260505090630 | 15 | 53 | 0.0 | 8.0 | 0.00 | 0.13 | 0.00 | 56 | 1007.7 |
| 20260505090133 | 16 | 78 | 1.6 | 8.0 | 0.00 | 0.13 | 0.00 | 57 | 1007.9 |
| 20260505090006 | 15 | 154 | 0.0 | 14.5 | 0.00 | 0.13 | 0.00 | 57 | 1007.6 |
| 20260505085628 | 16 | 120 | 0.0 | 14.5 | 0.00 | 0.13 | 0.00 | 56 | 1007.9 |
| 20260505085127 | 16 | 266 | 1.6 | 11.3 | 0.00 | 0.13 | 0.00 | 55 | 1008.1 |
| 20260505084645 | 16 | 159 | 1.6 | 11.3 | 0.00 | 0.13 | 0.00 | 56 | 1008.1 |
| 20260505084536 | 15 | 289 | 1.6 | 11.3 | 0.00 | 0.13 | 0.00 | 55 | 1007.7 |
| 20260505084128 | 16 | 195 | 0.0 | 6.4 | 0.00 | 0.13 | 0.00 | 56 | 1008.2 |
| 20260505083623 | 16 | 230 | 0.0 | 8.0 | 0.00 | 0.13 | 0.00 | 55 | 1008.3 |
| 20260505083134 | 16 | 305 | 0.0 | 12.9 | 0.00 | 0.13 | 0.00 | 55 | 1008.3 |
| 20260505083006 | 15 | 232 | 1.6 | 12.9 | 0.00 | 0.13 | 0.00 | 55 | 1008.0 |
| 20260505082610 | 16 | 334 | 1.6 | 12.9 | 0.00 | 0.13 | 0.00 | 55 | 1008.1 |
| 20260505082125 | 15 | 171 | 3.2 | 9.7 | 0.00 | 0.13 | 0.00 | 56 | 1008.3 |
| 20260505081639 | 15 | 13 | 0.0 | 11.3 | 0.00 | 0.13 | 0.00 | 57 | 1008.2 |
| 20260505081609 | 15 | 157 | 0.0 | 11.3 | 0.00 | 0.13 | 0.00 | 57 | 1008.0 |
| 20260505081125 | 15 | 340 | 1.6 | 11.3 | 0.00 | 0.13 | 0.00 | 56 | 1008.2 |
| 20260505080629 | 15 | 43 | 0.0 | 11.3 | 0.00 | 0.13 | 0.00 | 55 | 1008.1 |
| 20260505080148 | 15 | 320 | 1.6 | 11.3 | 0.00 | 0.13 | 0.00 | 56 | 1008.1 |
| 20260505080034 | 15 | 315 | 0.0 | 12.9 | 0.00 | 0.13 | 0.00 | 56 | 1007.9 |
| 20260505075621 | 15 | 311 | 0.0 | 12.9 | 0.00 | 0.13 | 0.00 | 55 | 1008.1 |
| 20260505075150 | 16 | 322 | 3.2 | 11.3 | 0.00 | 0.13 | 0.00 | 56 | 1008.1 |
| 20260505074631 | 16 | 239 | 3.2 | 9.7 | 0.00 | 0.13 | 0.00 | 54 | 1007.9 |
| 20260505074556 | 15 | 240 | 1.6 | 9.7 | 0.00 | 0.13 | 0.00 | 54 | 1007.7 |
| 20260505074120 | 16 | 323 | 1.6 | 6.4 | 0.00 | 0.13 | 0.00 | 54 | 1007.9 |
| 20260505073635 | 16 | 14 | 0.0 | 14.5 | 0.00 | 0.13 | 0.00 | 54 | 1008.1 |
| 20260505073110 | 16 | 63 | 4.8 | 14.5 | 0.00 | 0.13 | 0.00 | 53 | 1008.1 |
| 20260505073009 | 16 | 337 | 4.8 | 14.5 | 0.00 | 0.13 | 0.00 | 53 | 1008.0 |
| 20260505072649 | 16 | 264 | 0.0 | 11.3 | 0.00 | 0.13 | 0.00 | 54 | 1008.1 |
| 20260505072119 | 16 | 318 | 0.0 | 12.9 | 0.00 | 0.13 | 0.00 | 53 | 1008.1 |
| 20260505071624 | 16 | 230 | 3.2 | 12.9 | 0.00 | 0.13 | 0.00 | 53 | 1008.1 |
| 20260505071539 | 16 | 227 | 1.6 | 12.9 | 0.00 | 0.13 | 0.00 | 52 | 1007.9 |
| 20260505071127 | 16 | 263 | 1.6 | 8.0 | 0.00 | 0.13 | 0.00 | 53 | 1008.3 |
| 20260505070626 | 16 | 299 | 3.2 | 14.5 | 0.00 | 0.13 | 0.00 | 53 | 1008.3 |
| 20260505070150 | 16 | 180 | 3.2 | 14.5 | 0.00 | 0.13 | 0.00 | 53 | 1008.1 |
| 20260505065614 | 16 | 221 | 0.0 | 8.0 | 0.00 | 0.13 | 0.00 | 53 | 1008.1 |
| 20260505065104 | 16 | 309 | 1.6 | 8.0 | 0.00 | 0.13 | 0.00 | 53 | 1008.2 |
| 20260505064624 | 16 | 102 | 1.6 | 8.0 | 0.00 | 0.13 | 0.00 | 52 | 1008.3 |
| 20260505064545 | 16 | 66 | 0.0 | 8.0 | 0.00 | 0.13 | 0.00 | 52 | 1008.2 |
| 20260505064149 | 16 | 259 | 1.6 | 8.0 | 0.00 | 0.13 | 0.00 | 53 | 1008.1 |
| 20260505063638 | 16 | 101 | 0.0 | 9.7 | 0.00 | 0.13 | 0.00 | 53 | 1008.2 |
| 20260505063118 | 16 | 7 | 1.6 | 9.7 | 0.00 | 0.13 | 0.00 | 53 | 1008.2 |
| 20260505063028 | 16 | 6 | 0.0 | 12.9 | 0.00 | 0.13 | 0.00 | 53 | 1008.0 |
| 20260505062630 | 16 | 261 | 3.2 | 19.3 | 0.00 | 0.13 | 0.00 | 52 | 1008.0 |
| 20260505062128 | 16 | 214 | 3.2 | 19.3 | 0.00 | 0.13 | 0.00 | 51 | 1007.9 |
| 20260505061639 | 16 | 175 | 0.0 | 12.9 | 0.00 | 0.13 | 0.00 | 53 | 1008.0 |
| 20260505061630 | 16 | 163 | 0.0 | 12.9 | 0.00 | 0.13 | 0.00 | 51 | 1007.9 |
| 20260505060634 | 16 | 345 | 1.6 | 9.7 | 0.00 | 0.13 | 0.00 | 51 | 1008.0 |
| 20260505060121 | 16 | 255 | 1.6 | 9.7 | 0.00 | 0.13 | 0.00 | 51 | 1008.0 |
| 20260505060059 | 16 | 294 | 1.6 | 9.7 | 0.00 | 0.13 | 0.00 | 51 | 1007.9 |
| 20260505055638 | 16 | 239 | 1.6 | 8.0 | 0.00 | 0.13 | 0.00 | 53 | 1008.0 |
| 20260505055132 | 16 | 67 | 0.0 | 6.4 | 0.00 | 0.13 | 0.00 | 52 | 1008.2 |
| 20260505054612 | 16 | 13 | 1.6 | 9.7 | 0.00 | 0.13 | 0.00 | 50 | 1008.1 |
| 20260505054544 | 16 | 54 | 1.6 | 9.7 | 0.00 | 0.13 | 0.00 | 51 | 1008.0 |
| 20260505054118 | 16 | 211 | 3.2 | 17.7 | 0.00 | 0.13 | 0.00 | 51 | 1008.1 |
| 20260505053624 | 16 | 268 | 4.8 | 17.7 | 0.00 | 0.13 | 0.00 | 50 | 1008.0 |
| 20260505053135 | 16 | 15 | 0.0 | 8.0 | 0.00 | 0.13 | 0.00 | 52 | 1008.1 |
| 20260505053059 | 16 | 67 | 0.0 | 8.0 | 0.00 | 0.13 | 0.00 | 51 | 1008.1 |
| 20260505052632 | 16 | 118 | 0.0 | 6.4 | 0.00 | 0.13 | 0.00 | 52 | 1008.1 |
| 20260505052115 | 16 | 14 | 0.0 | 6.4 | 0.00 | 0.13 | 0.00 | 52 | 1008.2 |
| 20260505051629 | 16 | 221 | 0.0 | 6.4 | 0.00 | 0.13 | 0.00 | 53 | 1008.1 |
| 20260505051517 | 15 | 204 | 0.0 | 6.4 | 0.00 | 0.13 | 0.00 | 52 | 1008.1 |
| 20260505051111 | 15 | 309 | 1.6 | 6.4 | 0.00 | 0.13 | 0.00 | 53 | 1008.2 |
| 20260505050631 | 15 | 278 | 1.6 | 9.7 | 0.00 | 0.13 | 0.00 | 53 | 1008.1 |
| 20260505050116 | 15 | 180 | 1.6 | 9.7 | 0.00 | 0.13 | 0.00 | 54 | 1008.2 |
| 20260505041618 | 16 | 271 | 0.0 | 9.7 | 0.00 | 0.13 | 0.00 | 52 | 1008.2 |
| 20260505041532 | 15 | 272 | 0.0 | 9.7 | 0.00 | 0.13 | 0.00 | 54 | 1008.2 |
| 20260505041116 | 16 | 216 | 0.0 | 8.0 | 0.00 | 0.13 | 0.00 | 55 | 1008.2 |
| 20260505040700 | 16 | 272 | 1.6 | 16.1 | 0.00 | 0.13 | 0.00 | 53 | 1008.2 |
| 20260505040131 | 16 | 286 | 1.6 | 16.1 | 0.00 | 0.13 | 0.00 | 54 | 1008.2 |
| 20260505040036 | 15 | 185 | 0.0 | 16.1 | 0.00 | 0.13 | 0.00 | 51 | 1008.2 |
| 20260505035619 | 15 | 320 | 3.2 | 9.7 | 0.00 | 0.13 | 0.13 | 55 | 1008.3 |
| 20260505035143 | 15 | 80 | 1.6 | 9.7 | 0.00 | 0.13 | 0.13 | 56 | 1008.2 |
| 20260505034626 | 15 | 65 | 0.0 | 12.9 | 0.00 | 0.13 | 0.13 | 56 | 1008.2 |
| 20260505034534 | 15 | 65 | 0.0 | 12.9 | 0.00 | 0.13 | 0.13 | 58 | 1008.2 |
| 20260505034143 | 15 | 322 | 0.0 | 12.9 | 0.00 | 0.13 | 0.13 | 60 | 1008.2 |
| 20260505033619 | 14 | 232 | 0.0 | 6.4 | 0.00 | 0.13 | 0.13 | 62 | 1008.2 |
| 20260505033138 | 13 | 309 | 0.0 | 6.4 | 0.00 | 0.13 | 0.13 | 62 | 1008.3 |
| 20260505033030 | 13 | 309 | 0.0 | 6.4 | 0.00 | 0.13 | 0.13 | 62 | 1008.3 |
| 20260505032617 | 13 | 349 | 0.0 | 4.8 | 0.00 | 0.13 | 0.13 | 66 | 1008.3 |
| 20260505032133 | 13 | 295 | 1.6 | 4.8 | 0.00 | 0.13 | 0.13 | 67 | 1008.3 |
| 20260505031638 | 13 | 21 | 0.0 | 0.0 | 0.00 | 0.13 | 0.13 | 67 | 1008.3 |
| 20260505031600 | 12 | 37 | 0.0 | 0.0 | 0.00 | 0.13 | 0.13 | 68 | 1008.3 |
| 20260505031119 | 13 | 41 | 0.0 | 9.7 | 0.00 | 0.13 | 0.13 | 67 | 1008.3 |
| 20260505030657 | 13 | 95 | 0.0 | 9.7 | 0.00 | 0.13 | 0.13 | 66 | 1008.3 |
| 20260505030119 | 13 | 313 | 0.0 | 0.0 | 0.00 | 0.13 | 0.13 | 66 | 1008.4 |
| 20260505030047 | 12 | 313 | 0.0 | 0.0 | 0.00 | 0.13 | 0.13 | 67 | 1008.4 |
| 20260505025652 | 13 | 313 | 0.0 | 0.0 | 0.00 | 0.13 | 0.13 | 68 | 1008.4 |
| 20260505025129 | 13 | 316 | 0.0 | 0.0 | 0.00 | 0.13 | 0.13 | 66 | 1008.4 |
| 20260505024618 | 13 | 316 | 0.0 | 0.0 | 0.00 | 0.13 | 0.13 | 67 | 1008.5 |
| 20260505024556 | 12 | 316 | 0.0 | 0.0 | 0.00 | 0.13 | 0.13 | 67 | 1008.5 |
| 20260505024124 | 13 | 316 | 0.0 | 0.0 | 0.00 | 0.13 | 0.13 | 66 | 1008.5 |
| 20260505023621 | 13 | 316 | 0.0 | 0.0 | 0.00 | 0.13 | 0.13 | 68 | 1008.5 |
| 20260505023043 | 12 | 316 | 0.0 | 4.8 | 0.00 | 0.13 | 0.13 | 67 | 1008.7 |
| 20260505022624 | 12 | 322 | 0.0 | 4.8 | 0.00 | 0.13 | 0.13 | 67 | 1008.7 |
| 20260505022110 | 12 | 260 | 0.0 | 0.0 | 0.00 | 0.13 | 0.13 | 67 | 1008.7 |
| 20260505021628 | 12 | 261 | 0.0 | 0.0 | 0.00 | 0.13 | 0.13 | 67 | 1008.8 |
| 20260505021528 | 12 | 261 | 0.0 | 0.0 | 0.00 | 0.13 | 0.13 | 68 | 1008.9 |
| 20260505021134 | 12 | 256 | 0.0 | 0.0 | 0.00 | 0.13 | 0.13 | 67 | 1008.7 |
| 20260505020614 | 12 | 256 | 0.0 | 0.0 | 0.00 | 0.13 | 0.13 | 68 | 1008.7 |
| 20260505020126 | 12 | 256 | 0.0 | 0.0 | 0.00 | 0.13 | 0.13 | 68 | 1008.8 |
| 20260505020038 | 12 | 256 | 0.0 | 0.0 | 0.00 | 0.13 | 0.13 | 68 | 1008.9 |
| 20260505015121 | 13 | 256 | 0.0 | 0.0 | 0.00 | 0.13 | 0.13 | 66 | 1008.7 |
| 20260505014624 | 13 | 256 | 0.0 | 0.0 | 0.00 | 0.13 | 0.13 | 65 | 1008.7 |
| 20260505014517 | 12 | 256 | 0.0 | 0.0 | 0.00 | 0.13 | 0.13 | 65 | 1008.8 |
| 20260505014140 | 13 | 256 | 0.0 | 0.0 | 0.00 | 0.13 | 0.13 | 65 | 1008.7 |
| 20260505013629 | 13 | 256 | 0.0 | 0.0 | 0.00 | 0.13 | 0.13 | 64 | 1008.7 |
| 20260505013134 | 13 | 256 | 0.0 | 0.0 | 0.00 | 0.13 | 0.13 | 63 | 1008.7 |
| 20260505013001 | 13 | 256 | 0.0 | 0.0 | 0.00 | 0.13 | 0.13 | 62 | 1008.8 |
| 20260505012647 | 13 | 256 | 0.0 | 0.0 | 0.00 | 0.13 | 0.13 | 62 | 1008.6 |
| 20260505012119 | 14 | 256 | 0.0 | 0.0 | 0.00 | 0.13 | 0.13 | 61 | 1008.6 |
| 20260505011614 | 14 | 256 | 0.0 | 0.0 | 0.00 | 0.13 | 0.13 | 60 | 1008.6 |
| 20260505011536 | 13 | 256 | 0.0 | 0.0 | 0.00 | 0.13 | 0.13 | 61 | 1008.7 |
| 20260505011115 | 14 | 256 | 0.0 | 0.0 | 0.00 | 0.13 | 0.13 | 60 | 1008.6 |
| 20260505010618 | 15 | 256 | 0.0 | 0.0 | 0.00 | 0.13 | 0.13 | 57 | 1008.5 |
| 20260505010126 | 15 | 256 | 0.0 | 0.0 | 0.00 | 0.13 | 0.13 | 56 | 1008.5 |
| 20260505010033 | 15 | 256 | 0.0 | 0.0 | 0.00 | 0.13 | 0.13 | 56 | 1008.6 |
| 20260505005644 | 15 | 256 | 0.0 | 0.0 | 0.00 | 0.13 | 0.13 | 55 | 1008.4 |
| 20260505005135 | 15 | 256 | 0.0 | 0.0 | 0.00 | 0.13 | 0.13 | 55 | 1008.4 |
| 20260505004642 | 15 | 256 | 0.0 | 0.0 | 0.00 | 0.13 | 0.13 | 54 | 1008.4 |
| 20260505004538 | 15 | 256 | 0.0 | 0.0 | 0.00 | 0.13 | 0.13 | 55 | 1008.6 |
| 20260505004121 | 16 | 256 | 0.0 | 0.0 | 0.00 | 0.13 | 0.13 | 54 | 1008.4 |
| 20260505003643 | 16 | 256 | 0.0 | 0.0 | 0.00 | 0.13 | 0.13 | 53 | 1008.4 |
| 20260505003118 | 16 | 256 | 0.0 | 0.0 | 0.00 | 0.13 | 0.13 | 53 | 1008.4 |
| 20260505003027 | 15 | 256 | 0.0 | 0.0 | 0.00 | 0.13 | 0.13 | 53 | 1008.5 |
| 20260505002621 | 16 | 256 | 0.0 | 0.0 | 0.00 | 0.13 | 0.13 | 55 | 1008.3 |
| 20260505002119 | 16 | 256 | 0.0 | 0.0 | 0.00 | 0.13 | 0.13 | 56 | 1008.2 |
| 20260505001637 | 16 | 256 | 0.0 | 0.0 | 0.00 | 0.13 | 0.13 | 55 | 1008.2 |
| 20260505001556 | 15 | 256 | 0.0 | 0.0 | 0.00 | 0.13 | 0.13 | 55 | 1008.3 |
| 20260505001116 | 16 | 256 | 0.0 | 0.0 | 0.00 | 0.13 | 0.13 | 55 | 1008.1 |
| 20260505000701 | 16 | 256 | 0.0 | 0.0 | 0.00 | 0.13 | 0.13 | 54 | 1008.0 |
| 20260505000121 | 16 | 256 | 0.0 | 0.0 | 0.00 | 0.13 | 0.13 | 55 | 1008.0 |
| 20260505000055 | 16 | 256 | 0.0 | 0.0 | 0.00 | 0.13 | 0.13 | 55 | 1008.1 |
| 20260504235638 | 16 | 256 | 0.0 | 0.0 | 0.00 | 0.13 | 0.13 | 53 | 1007.9 |
| 20260504235116 | 16 | 256 | 0.0 | 0.0 | 0.00 | 0.13 | 0.13 | 53 | 1007.9 |
| 20260504234614 | 16 | 256 | 0.0 | 0.0 | 0.00 | 0.13 | 0.13 | 53 | 1007.9 |
| 20260504234536 | 16 | 256 | 0.0 | 0.0 | 0.00 | 0.13 | 0.13 | 53 | 1008.0 |
| 20260504234118 | 16 | 258 | 0.0 | 0.0 | 0.00 | 0.13 | 0.13 | 55 | 1007.8 |
| 20260504233630 | 17 | 257 | 0.0 | 0.0 | 0.00 | 0.13 | 0.13 | 54 | 1007.6 |
| 20260504233124 | 17 | 257 | 0.0 | 0.0 | 0.00 | 0.13 | 0.13 | 54 | 1007.6 |
| 20260504232617 | 17 | 218 | 0.0 | 0.0 | 0.00 | 0.13 | 0.13 | 53 | 1007.5 |
| 20260504232126 | 17 | 218 | 0.0 | 0.0 | 0.00 | 0.13 | 0.13 | 52 | 1007.5 |
| 20260504231606 | 17 | 218 | 0.0 | 0.0 | 0.00 | 0.13 | 0.13 | 50 | 1007.4 |
| 20260504231550 | 17 | 218 | 0.0 | 0.0 | 0.00 | 0.13 | 0.13 | 50 | 1007.5 |
| 20260504231112 | 17 | 232 | 0.0 | 0.0 | 0.00 | 0.13 | 0.13 | 54 | 1007.4 |
| 20260504230636 | 17 | 236 | 0.0 | 0.0 | 0.00 | 0.13 | 0.13 | 55 | 1007.3 |
| 20260504230126 | 17 | 102 | 0.0 | 0.0 | 0.00 | 0.13 | 0.13 | 58 | 1007.3 |
| 20260504230053 | 17 | 102 | 0.0 | 0.0 | 0.00 | 0.13 | 0.13 | 58 | 1007.5 |
| 20260504225623 | 17 | 127 | 0.0 | 0.0 | 0.00 | 0.13 | 0.13 | 55 | 1007.2 |
| 20260504225136 | 17 | 208 | 0.0 | 0.0 | 0.00 | 0.13 | 0.13 | 55 | 1007.1 |
| 20260504224623 | 17 | 207 | 0.0 | 0.0 | 0.00 | 0.13 | 0.13 | 56 | 1007.0 |
| 20260504224555 | 17 | 207 | 0.0 | 0.0 | 0.00 | 0.13 | 0.13 | 56 | 1007.2 |
| 20260504224151 | 17 | 190 | 0.0 | 0.0 | 0.00 | 0.13 | 0.13 | 55 | 1006.9 |
| 20260504223609 | 17 | 190 | 0.0 | 0.0 | 0.00 | 0.13 | 0.13 | 56 | 1006.9 |
| 20260504223132 | 17 | 187 | 0.0 | 0.0 | 0.00 | 0.13 | 0.13 | 58 | 1006.9 |
| 20260504223101 | 17 | 187 | 0.0 | 0.0 | 0.00 | 0.13 | 0.13 | 58 | 1007.1 |
| 20260504222624 | 17 | 184 | 0.0 | 0.0 | 0.00 | 0.13 | 0.13 | 59 | 1006.9 |
| 20260504222127 | 18 | 184 | 0.0 | 0.0 | 0.00 | 0.13 | 0.13 | 56 | 1006.9 |
| 20260504221636 | 18 | 183 | 0.0 | 0.0 | 0.00 | 0.13 | 0.13 | 55 | 1007.0 |
| 20260504221511 | 18 | 183 | 0.0 | 1.6 | 0.00 | 0.13 | 0.13 | 54 | 1007.1 |
| 20260504221136 | 18 | 183 | 0.0 | 1.6 | 0.00 | 0.13 | 0.13 | 50 | 1007.0 |
| 20260504220627 | 19 | 14 | 0.0 | 4.8 | 0.00 | 0.13 | 0.13 | 46 | 1007.0 |
| 20260504220140 | 19 | 10 | 0.0 | 4.8 | 0.00 | 0.13 | 0.13 | 45 | 1006.9 |
| 20260504220042 | 18 | 288 | 0.0 | 4.8 | 0.00 | 0.13 | 0.13 | 46 | 1007.1 |
| 20260504215610 | 19 | 275 | 0.0 | 6.4 | 0.00 | 0.13 | 0.13 | 46 | 1006.8 |
| 20260504215117 | 19 | 60 | 0.0 | 9.7 | 0.00 | 0.13 | 0.13 | 48 | 1006.9 |
| 20260504214627 | 19 | 40 | 1.6 | 9.7 | 0.00 | 0.13 | 0.13 | 45 | 1007.0 |
| 20260504214513 | 18 | 334 | 0.0 | 0.0 | 0.00 | 0.13 | 0.13 | 46 | 1007.2 |
| 20260504214137 | 19 | 339 | 0.0 | 6.4 | 0.00 | 0.13 | 0.13 | 45 | 1006.9 |
| 20260504213630 | 19 | 340 | 0.0 | 12.9 | 0.00 | 0.13 | 0.13 | 45 | 1006.7 |
| 20260504213114 | 19 | 87 | 0.0 | 12.9 | 0.00 | 0.13 | 0.13 | 46 | 1006.6 |
| 20260504213101 | 18 | 1 | 0.0 | 12.9 | 0.00 | 0.13 | 0.13 | 46 | 1006.8 |
| 20260504212620 | 18 | 44 | 0.0 | 3.2 | 0.00 | 0.13 | 0.13 | 45 | 1006.7 |
| 20260504212129 | 19 | 277 | 0.0 | 0.0 | 0.00 | 0.13 | 0.13 | 48 | 1006.6 |
| 20260504211641 | 18 | 336 | 0.0 | 0.0 | 0.00 | 0.13 | 0.13 | 45 | 1006.7 |
| 20260504211505 | 18 | 336 | 0.0 | 0.0 | 0.00 | 0.13 | 0.13 | 46 | 1006.9 |
| 20260504211121 | 18 | 336 | 0.0 | 0.0 | 0.00 | 0.13 | 0.13 | 48 | 1006.6 |
| 20260504210649 | 18 | 252 | 0.0 | 3.2 | 0.00 | 0.13 | 0.13 | 47 | 1006.7 |
| 20260504210130 | 18 | 211 | 0.0 | 3.2 | 0.00 | 0.13 | 0.13 | 45 | 1006.6 |
| 20260504210041 | 18 | 211 | 0.0 | 3.2 | 0.00 | 0.13 | 0.13 | 47 | 1006.9 |
| 20260504205628 | 18 | 306 | 0.0 | 6.4 | 0.00 | 0.13 | 0.13 | 46 | 1006.7 |
| 20260504205120 | 18 | 180 | 0.0 | 8.0 | 0.00 | 0.13 | 0.13 | 45 | 1006.7 |
| 20260504204617 | 18 | 150 | 1.6 | 8.0 | 0.00 | 0.13 | 0.13 | 47 | 1006.7 |
| 20260504204534 | 18 | 147 | 0.0 | 8.0 | 0.00 | 0.13 | 0.13 | 47 | 1007.0 |
| 20260504204114 | 18 | 297 | 0.0 | 1.6 | 0.00 | 0.13 | 0.13 | 48 | 1006.7 |
| 20260504203612 | 18 | 212 | 0.0 | 4.8 | 0.00 | 0.13 | 0.13 | 46 | 1006.7 |
| 20260504203124 | 18 | 249 | 0.0 | 4.8 | 0.00 | 0.13 | 0.13 | 46 | 1006.8 |
| 20260504203027 | 18 | 190 | 0.0 | 4.8 | 0.00 | 0.13 | 0.13 | 46 | 1007.0 |
| 20260504202625 | 19 | 287 | 0.0 | 8.0 | 0.00 | 0.13 | 0.13 | 45 | 1006.9 |
| 20260504202127 | 19 | 225 | 0.0 | 9.7 | 0.00 | 0.13 | 0.13 | 45 | 1006.9 |
| 20260504201638 | 19 | 179 | 1.6 | 9.7 | 0.00 | 0.13 | 0.13 | 47 | 1006.9 |
| 20260504201512 | 18 | 327 | 1.6 | 4.8 | 0.00 | 0.13 | 0.13 | 48 | 1007.2 |
| 20260504201110 | 18 | 147 | 0.0 | 6.4 | 0.00 | 0.13 | 0.13 | 46 | 1006.9 |
| 20260504200631 | 18 | 21 | 1.6 | 6.4 | 0.00 | 0.13 | 0.13 | 46 | 1007.1 |
| 20260504200130 | 18 | 157 | 0.0 | 11.3 | 0.00 | 0.13 | 0.13 | 48 | 1007.1 |
| 20260504200016 | 18 | 154 | 0.0 | 11.3 | 0.00 | 0.13 | 0.13 | 47 | 1007.3 |
| 20260504195614 | 18 | 232 | 1.6 | 12.9 | 0.00 | 0.13 | 0.13 | 47 | 1007.1 |
| 20260504195116 | 19 | 253 | 1.6 | 12.9 | 0.00 | 0.13 | 0.13 | 46 | 1007.1 |
| 20260504194620 | 19 | 45 | 1.6 | 14.5 | 0.00 | 0.13 | 0.13 | 47 | 1007.3 |
| 20260504194548 | 18 | 336 | 0.0 | 14.5 | 0.00 | 0.13 | 0.13 | 46 | 1007.6 |
| 20260504194123 | 19 | 351 | 3.2 | 14.5 | 0.00 | 0.13 | 0.13 | 46 | 1007.2 |
| 20260504193620 | 19 | 3 | 3.2 | 11.3 | 0.00 | 0.13 | 0.13 | 47 | 1007.3 |
| 20260504193105 | 19 | 32 | 0.0 | 4.8 | 0.00 | 0.13 | 0.13 | 46 | 1007.4 |
| 20260504193031 | 18 | 200 | 0.0 | 4.8 | 0.00 | 0.13 | 0.13 | 46 | 1007.7 |
| 20260504192122 | 18 | 345 | 3.2 | 12.9 | 0.00 | 0.13 | 0.13 | 48 | 1007.5 |
| 20260504191636 | 18 | 3 | 1.6 | 9.7 | 0.00 | 0.13 | 0.13 | 48 | 1007.5 |
| 20260504191606 | 18 | 10 | 1.6 | 9.7 | 0.00 | 0.13 | 0.13 | 46 | 1007.8 |
| 20260504191130 | 18 | 344 | 0.0 | 12.9 | 0.00 | 0.13 | 0.13 | 49 | 1007.6 |
| 20260504190622 | 18 | 55 | 1.6 | 12.9 | 0.00 | 0.13 | 0.13 | 48 | 1007.6 |
| 20260504190122 | 18 | 349 | 1.6 | 9.7 | 0.00 | 0.13 | 0.13 | 49 | 1007.7 |
| 20260504190040 | 18 | 358 | 1.6 | 9.7 | 0.00 | 0.13 | 0.13 | 49 | 1008.1 |
| 20260504185622 | 18 | 124 | 0.0 | 11.3 | 0.00 | 0.13 | 0.13 | 54 | 1007.8 |
| 20260504184637 | 18 | 181 | 1.6 | 12.9 | 0.00 | 0.13 | 0.13 | 49 | 1008.0 |
| 20260504184505 | 17 | 332 | 0.0 | 12.9 | 0.00 | 0.13 | 0.13 | 50 | 1008.4 |
| 20260504184147 | 17 | 350 | 0.0 | 12.9 | 0.00 | 0.13 | 0.13 | 55 | 1008.1 |
| 20260504183642 | 17 | 338 | 0.0 | 14.5 | 0.00 | 0.13 | 0.13 | 50 | 1008.3 |
| 20260504183134 | 17 | 178 | 3.2 | 14.5 | 0.00 | 0.13 | 0.13 | 51 | 1008.4 |
| 20260504183041 | 17 | 335 | 4.8 | 14.5 | 0.00 | 0.13 | 0.13 | 51 | 1008.8 |
| 20260504182620 | 17 | 254 | 0.0 | 11.3 | 0.00 | 0.13 | 0.13 | 52 | 1008.5 |
| 20260504182132 | 17 | 219 | 1.6 | 6.4 | 0.00 | 0.13 | 0.13 | 54 | 1008.5 |
| 20260504181640 | 16 | 28 | 1.6 | 14.5 | 0.00 | 0.13 | 0.13 | 55 | 1008.6 |
| 20260504181535 | 16 | 3 | 1.6 | 14.5 | 0.00 | 0.13 | 0.13 | 55 | 1009.0 |
| 20260504181124 | 16 | 214 | 0.0 | 14.5 | 0.00 | 0.13 | 0.13 | 55 | 1008.6 |
| 20260504180628 | 16 | 292 | 0.0 | 9.7 | 0.00 | 0.13 | 0.13 | 54 | 1008.7 |
| 20260504180144 | 16 | 242 | 1.6 | 12.9 | 0.00 | 0.13 | 0.13 | 55 | 1008.8 |
| 20260504180130 | 16 | 232 | 1.6 | 12.9 | 0.00 | 0.13 | 0.13 | 56 | 1009.2 |
| 20260504175632 | 16 | 222 | 1.6 | 12.9 | 0.00 | 0.13 | 0.13 | 56 | 1008.8 |
| 20260504175115 | 16 | 350 | 3.2 | 11.3 | 0.00 | 0.13 | 0.13 | 57 | 1008.9 |
| 20260504174620 | 16 | 353 | 3.2 | 16.1 | 0.00 | 0.13 | 0.13 | 58 | 1008.9 |
| 20260504174531 | 15 | 15 | 1.6 | 16.1 | 0.00 | 0.13 | 0.13 | 58 | 1009.4 |
| 20260504174111 | 15 | 321 | 0.0 | 16.1 | 0.00 | 0.13 | 0.13 | 60 | 1008.9 |
| 20260504173632 | 15 | 337 | 3.2 | 16.1 | 0.00 | 0.13 | 0.13 | 57 | 1009.2 |
| 20260504173111 | 15 | 315 | 3.2 | 11.3 | 0.00 | 0.13 | 0.13 | 58 | 1009.1 |
| 20260504173009 | 15 | 17 | 3.2 | 11.3 | 0.00 | 0.13 | 0.13 | 59 | 1009.5 |
| 20260504172621 | 15 | 301 | 4.8 | 11.3 | 0.00 | 0.13 | 0.13 | 59 | 1009.2 |
| 20260504172109 | 15 | 241 | 1.6 | 11.3 | 0.00 | 0.13 | 0.13 | 58 | 1009.0 |
| 20260504171621 | 15 | 311 | 1.6 | 9.7 | 0.00 | 0.13 | 0.13 | 60 | 1009.1 |
| 20260504171545 | 15 | 15 | 0.0 | 9.7 | 0.00 | 0.13 | 0.13 | 62 | 1009.6 |
| 20260504171121 | 15 | 277 | 3.2 | 11.3 | 0.00 | 0.13 | 0.13 | 62 | 1009.1 |
| 20260504170629 | 15 | 242 | 1.6 | 11.3 | 0.00 | 0.13 | 0.13 | 62 | 1009.2 |
| 20260504170125 | 14 | 225 | 1.6 | 14.5 | 0.00 | 0.13 | 0.13 | 63 | 1009.1 |
| 20260504160125 | 8 | 324 | 0.0 | 0.0 | 0.00 | 0.13 | 0.13 | 85 | 1009.9 |
| 20260504151123 | 8 | 99 | 0.0 | 0.0 | 0.05 | 0.13 | 0.13 | 87 | 1010.2 |
| 20260504150629 | 8 | 98 | 0.0 | 0.0 | 0.05 | 0.13 | 0.13 | 87 | 1010.2 |
| 20260504150113 | 8 | 98 | 0.0 | 0.0 | 0.05 | 0.13 | 0.13 | 86 | 1010.2 |